Simultaneous Nadir Overpasses (SNOs) Predictions

Prediction of SNOs between NOAA-19 and TERRA Satellite Orbit:

Table of predicted SNOs for the next 14.0 days since TLE Epoch: 4/26/2014
Index Date (NOAA-19) Time (NOAA-19) Lat,Lon (NOAA-19) SZA (NOAA-19 ) Date (TERRA) Time (TERRA) Lat,Lon (TERRA) SZA (TERRA ) Distance(km) Time Diff (sec)
1 04/27/2014 00:45:20 70.46, 169.80 56.62 04/27/2014 00:46:24 70.47, 169.81 56.63 1.53 64
2 04/27/2014 01:36:19 -70.32, -22.74 123.53 04/27/2014 01:35:54 -70.34, -22.75 123.52 1.98 25
3 04/29/2014 05:29:24 70.96, 98.00 56.42 04/29/2014 05:30:34 70.81, 99.25 56.28 48.45 70
4 04/29/2014 06:20:14 -70.39, -93.79 124.16 04/29/2014 06:20:10 -70.35, -93.79 124.20 3.57 4
5 04/29/2014 07:10:58 69.41, 74.95 54.88 04/29/2014 07:09:51 69.49, 72.64 54.92 90.72 67
6 05/01/2014 11:04:08 -70.41,-164.77 124.81 05/01/2014 11:04:26 -70.41,-164.78 124.81 0.61 18
7 05/01/2014 11:55:07 70.19, 2.81 54.97 05/01/2014 11:53:55 70.21, 2.57 54.98 9.36 72
8 05/03/2014 15:48:02 -70.44, 124.22 125.43 05/03/2014 15:48:43 -70.46, 124.22 125.41 2.60 41
9 05/03/2014 16:39:03 70.30, -68.31 54.42 05/03/2014 16:38:11 70.31, -68.36 54.43 2.01 52
10 05/05/2014 20:31:56 -70.48, 53.20 126.02 05/05/2014 20:33:01 -70.51, 53.21 126.00 2.48 65
11 05/05/2014 21:22:58 70.37,-139.38 53.86 05/05/2014 21:22:29 70.35,-139.37 53.84 1.99 29
12 05/08/2014 01:16:02 -71.16, -18.90 125.96 05/08/2014 01:17:10 -71.09, -16.98 126.01 69.35 68
13 05/08/2014 02:06:52 70.40, 149.63
